[[{"header":{"parameterUnit":"m.s-1","parameterCategory":1,"la1":30.2991,"la2":30.254,"lo1":-89.0895,"lo2":-89.0444,"dy":0.0017,"dx":0.0017,"nx":28,"ny":28,"refTime":"2024-10-20T09:00:00:Z","depth":0,"parameterNumber":2,"parameterNumberName":"U-component_of_WINDS"},"data":[0,0,0,0,0,0,0,0,0,0,0,0,0,0,0,0,0,0,0,0,0,0,0,0,0,0,0,0,0,0,0,0,0,0,0,0,0,0,0,0,0,0,0,0,0,0,0,0,0,0,0,0,0,0,0,0,0,0,-2.4033,-2.4033,0,-2.4078,-2.4079,-2.4079,-2.3994,-2.3991,-2.3988,-2.3985,-2.4033,-2.4037,-2.4041,0,0,0,0,0,0,0,0,0,0,0,0,0,-2.3871,-2.3875,-2.4033,-2.4033,-2.4034,-2.4078,-2.4079,-2.408,-2.3994,-2.3991,-2.3987,-2.3984,-2.4032,-2.4037,-2.4041,0,0,0,0,0,0,0,0,0,0,0,0,0,-2.3932,-2.3876,-2.4032,-2.3996,-2.3994,-2.4078,-2.4079,-2.408,-2.3995,-2.3991,-2.3986,-2.3982,-2.403,-2.4036,-2.4042,-2.4164,0,0,-2.406,-2.4063,0,0,0,0,0,0,0,0,-2.3928,-2.3938,-2.4001,-2.3999,-2.3996,-2.4026,-2.404,-2.4108,-2.3996,-2.3994,-2.3985,-2.398,-2.4034,-2.404,-2.4058,-2.4166,-2.4168,-2.4061,-2.4064,-2.4067,-2.4068,0,0,0,0,0,0,0,-2.3924,-2.3935,-2.4051,-2.4002,-2.3999,-2.3978,-2.3982,-2.4052,-2.4038,-2.3994,-2.3988,-2.3995,-2.4032,-2.4052,-2.4058,-2.4169,-2.406,-2.4066,-2.4069,-2.4072,-2.438,-2.4384,0,0,0,0,0,0,-2.3925,-2.3932,-2.4049,-2.4052,-2.3951,-2.3984,-2.3989,-2.4021,-2.4037,-2.4035,-2.3998,-2.399,-2.4044,-2.4051,-2.406,-2.4204,-2.4067,-2.4072,-2.4076,-2.4375,-2.4381,-2.4386,0,0,0,0,0,0,-2.3922,-2.3936,-2.4047,-2.3991,-2.4003,-2.3992,-2.4028,-2.4024,-2.4044,-2.404,-2.4037,-2.4021,-2.4041,-2.4051,-2.4139,-2.4205,-2.4075,-2.408,-2.437,-2.4377,-2.4384,-2.4494,0,0,0,0,0,0,-2.3917,-2.3935,-2.3982,-2.3992,-2.4007,-2.4126,-2.4032,-2.4028,-2.4054,-2.4044,-2.4061,-2.4059,-2.4038,-2.413,-2.4145,-2.421,-2.4085,-2.4364,-2.4373,-2.4381,-2.4485,-2.4504,-2.4521,0,0,0,0,0,-2.3912,-2.4011,-2.3984,-2.3999,-2.4064,-2.413,-2.4138,-2.4112,-2.406,-2.4106,-2.4104,-2.4059,-2.4195,-2.414,-2.4155,-2.4224,-2.436,-2.4371,-2.4381,-2.4477,-2.45,-2.452,0,0,0,0,0,0,-2.4009,-2.4012,-2.3982,-2.4088,-2.411,-2.4115,-2.4174,-2.4138,-2.4175,-2.4164,-2.413,-2.4134,-2.4229,-2.4234,-2.4174,-2.4343,-2.4268,-2.4282,-2.4336,-2.4359,-2.4376,-2.4374,-2.409,0,0,0,0,0,-2.4043,-2.4096,-2.4095,-2.4189,-2.4201,-2.4186,-2.4213,-2.4191,-2.4212,-2.4221,-2.4224,-2.4247,-2.4294,-2.4326,-2.437,-2.4484,-2.4487,-2.4539,-2.4557,-2.4572,-2.4585,-2.4646,-2.467,-2.4421,-2.442,-2.442,0,0,-2.4114,-2.4121,-2.4157,-2.4209,-2.4223,-2.4279,-2.4194,-2.4257,-2.4298,-2.423,-2.4313,-2.4317,-2.4339,-2.4441,-2.4486,-2.4449,-2.4654,-2.4585,-2.4597,-2.4602,-2.466,-2.4683,-2.4704,-2.4428,-2.4426,-2.4425,0,0,-2.4271,-2.4282,-2.4361,-2.4377,-2.4398,-2.4387,-2.4406,-2.4418,-2.4417,-2.45,-2.445,-2.4498,-2.4581,-2.4599,-2.4619,-2.4782,-2.4743,-2.4797,-2.4892,-2.4953,-2.4972,-2.499,-2.5049,-2.5071,-2.481,-2.481,-2.481,0,-2.4356,-2.4439,-2.4407,-2.4473,-2.4497,-2.4437,-2.4518,-2.4534,-2.4569,-2.4588,-2.4545,-2.4647,-2.4658,-2.4763,-2.4803,-2.482,-2.4842,-2.4796,-2.4972,-2.4989,-2.5005,-2.5061,-2.5083,-2.4816,-2.4816,-2.4815,-2.4814,0,-2.4543,-2.4601,-2.4662,-2.4697,-2.4728,-2.4801,-2.478,-2.4815,-2.479,-2.4783,-2.4868,-2.4878,-2.4923,-2.4946,-2.4922,-2.5048,-2.5024,-2.4977,-2.4902,-2.5036,-2.5088,-2.5109,-2.4826,-2.4824,-2.4822,-2.482,0,0,-2.4766,-2.4781,-2.4804,-2.482,-2.4839,-2.4883,-2.4953,-2.4996,-2.5027,-2.5053,-2.5111,-2.5182,-2.5138,-2.5161,-2.5138,-2.519,-2.532,-2.5137,-2.5137,-2.5172,-2.5461,-2.5498,-2.5524,-2.5293,-2.5297,-2.53,-2.546,0,-2.4923,-2.5044,-2.5017,-2.5136,-2.5189,-2.5132,-2.5193,-2.5211,-2.5206,-2.5251,-2.5245,-2.5296,-2.5234,-2.5248,-2.5297,-2.5294,-2.5378,-2.5282,-2.5348,-2.5351,-2.5347,-2.5551,-2.559,-2.574,-2.548,-2.5483,-2.5486,0,-2.5124,-2.5157,-2.5282,-2.5292,-2.5313,-2.5369,-2.5406,-2.5448,-2.5468,-2.5461,-2.5486,-2.5452,-2.5521,-2.5444,-2.5539,-2.5474,-2.5499,-2.5502,-2.5507,-2.5514,-2.5428,-2.5565,-2.5788,-2.5811,-2.5518,-2.5515,-2.5513,0,-2.5276,-2.5351,-2.5436,-2.545,-2.5464,-2.5504,-2.5512,-2.5526,-2.5554,-2.5586,-2.5604,-2.5644,-2.5667,-2.5698,-2.5676,-2.5621,-2.5776,-2.5696,-2.5773,-2.5774,-2.581,-2.5808,-2.6042,-2.5823,-2.5822,-2.5822,-2.5821,0,-2.5456,-2.5535,-2.5504,-2.5557,-2.5643,-2.561,-2.5697,-2.5697,-2.5711,-2.5762,-2.5714,-2.5764,-2.5731,-2.5777,-2.576,-2.5842,-2.5852,-2.5849,-2.5844,-2.5855,-2.5856,-2.5872,-2.5862,-2.5828,-2.5827,-2.5825,-2.5824,0,-2.5642,-2.5624,-2.5713,-2.5718,-2.5721,-2.5785,-2.5789,-2.5837,-2.5828,-2.5894,-2.5907,-2.5893,-2.5945,-2.5926,-2.5981,-2.5969,-2.6075,-2.6055,-2.6069,-2.6065,-2.6143,-2.6137,-2.6397,-2.643,-2.6188,-2.6191,-2.6193,0,-2.5759,-2.5819,-2.583,-2.5861,-2.5871,-2.5922,-2.5949,-2.5918,-2.5949,-2.5975,-2.6021,-2.6068,-2.6105,-2.6191,-2.6186,-2.6229,-2.6211,-2.6299,-2.6217,-2.6226,-2.6214,-2.6212,-2.6218,-2.6316,-2.6319,-2.6321,-2.6323,0,-2.597,-2.5958,-2.6,-2.6039,-2.6073,-2.6102,-2.6127,-2.6155,-2.6125,-2.6162,-2.6215,-2.6243,-2.63,-2.6348,-2.6385,-2.6393,-2.6354,-2.6348,-2.6369,-2.6382,-2.6388,-2.6387,-2.6116,-2.6343,-2.6341,-2.634,-2.6339,-2.6338,-2.6126,-2.6177,-2.6192,-2.624,-2.6255,-2.628,-2.6326,-2.6322,-2.6365,-2.6408,-2.6387,-2.6448,-2.6465,-2.6511,-2.6524,-2.6571,-2.6537,-2.6566,-2.6574,-2.6582,-2.6593,-2.6378,-2.6578,-2.6577,-2.6576,-2.6576,-2.6576,0,-2.6336,-2.6343,-2.6387,-2.6423,-2.6461,-2.6419,-2.6444,-2.6479,-2.6534,-2.6552,-2.6589,-2.6649,-2.6696,-2.6694,-2.6736,-2.6775,-2.6758,-2.6787,-2.6785,-2.6788,-2.662,-2.6599,-2.68,-2.68,-2.68,-2.68,-2.68,-2.68,-2.645,-2.6533,-2.6523,-2.6613,-2.6618,-2.6678,-2.6696,-2.6718,-2.6733,-2.6802,-2.6841,-2.6838,-2.6849,-2.6892,-2.6932,-2.693,-2.6949,-2.6986,-2.6978,-2.6822,-2.68,-2.6778,-2.6759,-2.699,-2.699,-2.7141,-2.7142,-2.7144]},{"header":{"parameterUnit":"m.s-1","parameterCategory":1,"la1":30.2991,"la2":30.254,"lo1":-89.0895,"lo2":-89.0444,"dy":0.0017,"dx":0.0017,"nx":28,"ny":28,"refTime":"2024-10-20T09:00:00:Z","depth":0,"parameterNumber":3,"parameterNumberName":"V-component_of_WINDS"},"data":[0,0,0,0,0,0,0,0,0,0,0,0,0,0,0,0,0,0,0,0,0,0,0,0,0,0,0,0,0,0,0,0,0,0,0,0,0,0,0,0,0,0,0,0,0,0,0,0,0,0,0,0,0,0,0,0,0,0,-4.5388,-4.5389,0,-4.5454,-4.5455,-4.5456,-4.5401,-4.5399,-4.5397,-4.5395,-4.5458,-4.5462,-4.5465,0,0,0,0,0,0,0,0,0,0,0,0,0,-4.5209,-4.5212,-4.5388,-4.5389,-4.5389,-4.5454,-4.5455,-4.5456,-4.5402,-4.5399,-4.5396,-4.5394,-4.5457,-4.5461,-4.5466,0,0,0,0,0,0,0,0,0,0,0,0,0,-4.5282,-4.5214,-4.5388,-4.537,-4.537,-4.5454,-4.5455,-4.5456,-4.5402,-4.5399,-4.5396,-4.5392,-4.5455,-4.5461,-4.5466,-4.557,0,0,-4.5484,-4.5486,0,0,0,0,0,0,0,0,-4.5278,-4.5289,-4.5372,-4.5372,-4.5371,-4.5416,-4.5415,-4.5494,-4.5403,-4.539,-4.5395,-4.5391,-4.5446,-4.5453,-4.5472,-4.5573,-4.5575,-4.5484,-4.5488,-4.549,-4.5492,0,0,0,0,0,0,0,-4.5273,-4.5285,-4.5414,-4.5373,-4.5373,-4.5358,-4.5364,-4.543,-4.5436,-4.5391,-4.5387,-4.5396,-4.5445,-4.5467,-4.5473,-4.5576,-4.5484,-4.5489,-4.5493,-4.5495,-4.5763,-4.5766,0,0,0,0,0,0,-4.527,-4.5282,-4.5412,-4.5416,-4.5315,-4.5364,-4.5371,-4.5405,-4.5435,-4.5437,-4.5399,-4.5393,-4.5459,-4.5467,-4.5475,-4.5597,-4.549,-4.5495,-4.5499,-4.5759,-4.5763,-4.5767,0,0,0,0,0,0,-4.5267,-4.5282,-4.5409,-4.5348,-4.5363,-4.537,-4.5409,-4.5408,-4.543,-4.5441,-4.5442,-4.542,-4.5457,-4.5467,-4.5547,-4.5599,-4.5498,-4.5503,-4.5755,-4.576,-4.5765,-4.5843,0,0,0,0,0,0,-4.5262,-4.5281,-4.5322,-4.5349,-4.5366,-4.5481,-4.5412,-4.5412,-4.544,-4.5434,-4.5462,-4.5463,-4.5455,-4.5538,-4.5552,-4.5605,-4.5508,-4.575,-4.5757,-4.5764,-4.5836,-4.585,-4.5863,0,0,0,0,0,-4.5256,-4.534,-4.5324,-4.534,-4.5418,-4.5484,-4.5494,-4.5484,-4.5445,-4.5485,-4.5492,-4.5462,-4.5591,-4.5547,-4.5562,-4.5617,-4.5747,-4.5755,-4.5763,-4.5829,-4.5847,-4.5863,0,0,0,0,0,0,-4.5318,-4.5344,-4.5326,-4.5423,-4.5452,-4.5475,-4.5525,-4.5504,-4.5543,-4.5535,-4.552,-4.5527,-4.561,-4.5621,-4.5572,-4.5718,-4.5662,-4.5674,-4.5707,-4.5725,-4.5738,-4.5733,-4.5512,0,0,0,0,0,-4.5343,-4.5397,-4.5416,-4.5499,-4.5515,-4.5518,-4.5546,-4.5536,-4.5565,-4.5577,-4.559,-4.5617,-4.5664,-4.5695,-4.5739,-4.5837,-4.5841,-4.5882,-4.5896,-4.5907,-4.5917,-4.5969,-4.5987,-4.5795,-4.5795,-4.5795,0,0,-4.5395,-4.5416,-4.545,-4.5512,-4.5533,-4.5587,-4.5528,-4.5588,-4.5627,-4.5585,-4.5661,-4.5672,-4.5701,-4.579,-4.583,-4.5802,-4.5971,-4.5918,-4.5927,-4.5931,-4.5979,-4.5997,-4.6013,-4.58,-4.5799,-4.5799,0,0,-4.5518,-4.554,-4.5611,-4.5634,-4.5667,-4.5669,-4.5686,-4.5712,-4.5718,-4.5794,-4.5763,-4.5809,-4.589,-4.5912,-4.5934,-4.6065,-4.6038,-4.6079,-4.615,-4.6201,-4.6216,-4.6229,-4.6274,-4.6291,-4.6089,-4.609,-4.609,0,-4.5578,-4.566,-4.565,-4.5712,-4.5739,-4.5705,-4.5776,-4.5798,-4.5844,-4.5862,-4.5831,-4.5932,-4.5949,-4.6043,-4.6074,-4.6094,-4.6111,-4.6076,-4.6215,-4.6228,-4.624,-4.6283,-4.63,-4.6094,-4.6094,-4.6093,-4.6093,0,-4.5731,-4.5789,-4.5842,-4.5888,-4.5921,-4.5988,-4.5986,-4.602,-4.6008,-4.6012,-4.6089,-4.6109,-4.6155,-4.6177,-4.6164,-4.6268,-4.625,-4.6217,-4.6161,-4.6263,-4.6303,-4.632,-4.6101,-4.6099,-4.6098,-4.6097,0,0,-4.5895,-4.5935,-4.5954,-4.5975,-4.6009,-4.6052,-4.6116,-4.6163,-4.6192,-4.6225,-4.6277,-4.6346,-4.6316,-4.6341,-4.6331,-4.6375,-4.6476,-4.6337,-4.6337,-4.6361,-4.6589,-4.6613,-4.6633,-4.6458,-4.6462,-4.6464,-4.6586,0,-4.6018,-4.6131,-4.6124,-4.623,-4.6281,-4.6249,-4.6305,-4.6331,-4.6336,-4.6379,-4.6384,-4.6434,-4.6391,-4.6405,-4.6448,-4.6455,-4.6521,-4.6446,-4.6505,-4.6507,-4.6498,-4.6654,-4.6679,-4.6794,-4.6602,-4.6605,-4.6607,0,-4.6177,-4.6216,-4.6328,-4.6354,-4.6375,-4.6425,-4.6467,-4.651,-4.6538,-4.6538,-4.6567,-4.6549,-4.6611,-4.6554,-4.6639,-4.6588,-4.6611,-4.6618,-4.6622,-4.6627,-4.6563,-4.6661,-4.683,-4.6847,-4.6632,-4.663,-4.6628,0,-4.6283,-4.6364,-4.6441,-4.6459,-4.6492,-4.6528,-4.6542,-4.6568,-4.6596,-4.6632,-4.665,-4.6693,-4.6716,-4.6748,-4.6742,-4.6701,-4.6828,-4.677,-4.6829,-4.6829,-4.6856,-4.6854,-4.703,-4.6873,-4.6873,-4.6873,-4.6872,0,-4.6421,-4.649,-4.6489,-4.6537,-4.6612,-4.6602,-4.6677,-4.6687,-4.671,-4.6757,-4.6732,-4.6776,-4.6765,-4.6809,-4.6804,-4.6874,-4.6885,-4.6886,-4.6883,-4.6887,-4.6887,-4.6902,-4.6893,-4.6877,-4.6876,-4.6875,-4.6875,0,-4.6553,-4.6555,-4.6637,-4.6661,-4.6669,-4.6724,-4.6743,-4.6787,-4.679,-4.685,-4.6863,-4.6868,-4.6918,-4.6915,-4.6971,-4.6967,-4.7054,-4.7043,-4.7045,-4.7042,-4.71,-4.7094,-4.7291,-4.7316,-4.7144,-4.7145,-4.7147,0,-4.664,-4.6693,-4.6723,-4.6754,-4.6772,-4.6821,-4.685,-4.6842,-4.6873,-4.6909,-4.6948,-4.6996,-4.7034,-4.7114,-4.7122,-4.7164,-4.7153,-4.7219,-4.7159,-4.7161,-4.7152,-4.7149,-4.7153,-4.723,-4.7232,-4.7234,-4.7235,0,-4.6795,-4.6793,-4.6838,-4.6882,-4.6918,-4.6952,-4.6984,-4.701,-4.7004,-4.704,-4.7092,-4.7121,-4.7179,-4.7226,-4.7266,-4.7279,-4.7256,-4.7254,-4.727,-4.7274,-4.7273,-4.7273,-4.7076,-4.7249,-4.7248,-4.7247,-4.7246,-4.7246,-4.6906,-4.6951,-4.698,-4.7029,-4.7052,-4.7082,-4.7124,-4.7133,-4.7176,-4.7224,-4.7215,-4.7273,-4.7298,-4.735,-4.7367,-4.7411,-4.7387,-4.741,-4.7415,-4.7421,-4.7427,-4.7267,-4.7418,-4.7418,-4.7417,-4.7417,-4.7417,0,-4.7058,-4.7075,-4.7121,-4.7166,-4.7205,-4.7181,-4.7214,-4.7248,-4.7299,-4.7326,-4.7364,-4.7422,-4.7468,-4.7479,-4.7522,-4.7555,-4.7545,-4.7566,-4.7563,-4.7566,-4.7446,-4.7428,-4.7573,-4.7573,-4.7573,-4.7573,-4.7573,-4.7573,-4.7142,-4.7217,-4.7218,-4.7303,-4.7319,-4.7376,-4.7397,-4.7423,-4.7445,-4.7512,-4.755,-4.7557,-4.7577,-4.7622,-4.7662,-4.7664,-4.768,-4.7706,-4.7703,-4.7591,-4.7575,-4.756,-4.7543,-4.771,-4.771,-4.7819,-4.782,-4.7821]}]]